Weather History for Lapeer, MI

Change the Weather History Date:

Wednesday, November 7, 2012

  Actual Average (KFNT) Record (KFNT)
Temperature  
Mean Temperature 36 °F 42 °F  
Max Temperature 45 °F 51 °F 76 °F (1924)
Min Temperature 26 °F 34 °F 16 °F (1930)
Degree Days  
Heating Degree Days 30 23  
Month to date heating degree days 152  
Since 1 July heating degree days 848  
Cooling Degree Days 0 0  
Month to date cooling degree days 0  
Year to date cooling degree days 531  
Moisture  
Dew Point 29 °F    
Average Humidity 81    
Maximum Humidity 100    
Minimum Humidity 48    
Precipitation  
Precipitation 0.00 in 0.09 in 1.29 in (1996)
Month to date precipitation 0.64  
Year to date precipitation 27.42  
Snow  
Snow - 0.10 in 2.90 in (1951)
Month to date snowfall 0.2  
Since 1 July snowfall 0.6  
Since 1 September snowfall 0.6  
Snow Depth -    
Sea Level Pressure  
Sea Level Pressure 30.07 in    
Wind  
Wind Speed 3 mph ()    
Max Wind Speed 7 mph    
Max Gust Speed -    
Visibility 9.3 miles    
Events      
T = Trace of Precipitation, MM = Missing Value Source: Averaged Metar Reports

Daily Weather History Graph

Daily Weather History Graph

Search for Another Location

Airport:

Trip Planner

Search our weather history database for the weather conditions in past years. The results will help you decide how hot, cold, wet, or windy it might be!

Date:

Astronomy

Nov. 07, 2012 Rise Set
Actual Time 7:16 AM EST 5:17 PM EST
Civil Twilight 6:45 AM EST 5:47 PM EST
Nautical Twilight 6:12 AM EST 6:20 PM EST
Astronomical Twilight 5:38 AM EST 6:54 PM EST
Moon No Moon Rise 1:35 PM EST (11/7)
Length of Visible Light 11h 01m
Length of Day
10h 00m
Last Quarter, 43% of the Moon is Illuminated
Nov 7
Last Quarter
Nov 13
New
Nov 20
First Quarter
Nov 28
Full
Dec 6
Last Quarter

Hourly Weather History & Observations

Time (EST) Temp. Windchill Dew Point Humidity Pressure Visibility Wind Dir Wind Speed Gust Speed Precip Events Conditions
12:13 AM 33.1 °F 28.7 °F 27.9 °F 81% 30.00 in 10.0 mi East 4.6 mph - N/A   Scattered Clouds
12:33 AM 32.4 °F 29.1 °F 27.3 °F 82% 30.01 in 10.0 mi East 3.5 mph - N/A   Clear
12:53 AM 32.0 °F 28.7 °F 27.1 °F 82% 30.00 in 10.0 mi East 3.5 mph - N/A   Clear
1:13 AM 31.8 °F - 27.0 °F 82% 30.00 in 10.0 mi Calm Calm - N/A   Scattered Clouds
1:33 AM 31.1 °F 27.7 °F 26.2 °F 82% 30.00 in 10.0 mi ENE 3.5 mph - N/A   Scattered Clouds
1:53 AM 31.3 °F - 25.7 °F 80% 30.00 in 10.0 mi Calm Calm - N/A   Clear
2:13 AM 29.8 °F - 25.5 °F 84% 30.01 in 10.0 mi Calm Calm - N/A   Clear
2:33 AM 30.0 °F - 25.7 °F 84% 30.01 in 10.0 mi Calm Calm - N/A   Clear
2:53 AM 28.6 °F - 25.0 °F 86% 30.01 in 10.0 mi Calm Calm - N/A   Scattered Clouds
3:13 AM 28.2 °F - 26.1 °F 92% 30.01 in 10.0 mi Calm Calm - N/A   Overcast
3:53 AM 28.4 °F - 27.0 °F 94% 30.01 in 10.0 mi Calm Calm - N/A   Mostly Cloudy
4:13 AM 30.2 °F 26.7 °F 26.8 °F 87% 30.01 in 10.0 mi ENE 3.5 mph - N/A   Scattered Clouds
4:33 AM 30.9 °F 27.5 °F 27.3 °F 86% 30.02 in 10.0 mi East 3.5 mph - N/A   Clear
4:53 AM 31.1 °F 26.4 °F 27.5 °F 87% 30.02 in 10.0 mi ENE 4.6 mph - N/A   Clear
5:13 AM 31.1 °F 27.7 °F 28.0 °F 88% 30.02 in 10.0 mi ENE 3.5 mph - N/A   Clear
5:33 AM 30.9 °F 27.5 °F 28.6 °F 91% 30.02 in 10.0 mi NE 3.5 mph - N/A   Clear
5:53 AM 29.1 °F 25.4 °F 29.1 °F 100% 30.03 in 10.0 mi NE 3.5 mph - N/A   Clear
6:13 AM 28.4 °F 24.6 °F 28.4 °F 100% 30.03 in 10.0 mi NNE 3.5 mph - N/A   Clear
6:33 AM 27.7 °F 22.4 °F 27.7 °F 100% 30.03 in 10.0 mi NNE 4.6 mph - N/A   Clear
6:53 AM 26.6 °F 22.6 °F 26.6 °F 100% 30.03 in 7.0 mi NNE 3.5 mph - N/A   Clear
7:13 AM 28.0 °F 22.8 °F 28.0 °F 100% 30.03 in 7.0 mi North 4.6 mph - N/A   Clear
7:33 AM 26.6 °F 22.6 °F 26.6 °F 100% 30.03 in 5.0 mi North 3.5 mph - N/A   Clear
7:53 AM 26.8 °F - 26.8 °F 100% 30.04 in 4.0 mi North - - N/A   Clear
8:13 AM 29.8 °F - 29.8 °F 100% 30.04 in 4.0 mi North - - N/A   Clear
8:33 AM 31.8 °F - 31.8 °F 100% 30.05 in 5.0 mi Calm Calm - N/A   Clear
8:53 AM 33.8 °F - 33.8 °F 100% 30.05 in 7.0 mi Calm Calm - N/A   Clear
9:13 AM 35.8 °F 33.0 °F 34.7 °F 96% 30.05 in 10.0 mi NE 3.5 mph - N/A   Clear
9:33 AM 37.4 °F 32.8 °F 35.4 °F 93% 30.05 in 10.0 mi ENE 5.8 mph - N/A   Clear
9:53 AM 38.8 °F 35.4 °F 34.7 °F 85% 30.06 in 10.0 mi East 4.6 mph - N/A   Clear
10:13 AM 39.4 °F 35.2 °F 32.0 °F 75% 30.07 in 10.0 mi East 5.8 mph - N/A   Clear
10:34 AM 40.5 °F 35.8 °F 32.0 °F 72% 30.08 in 10.0 mi East 6.9 mph - N/A   Clear
10:53 AM 41.4 °F 36.8 °F 32.0 °F 69% 30.09 in 10.0 mi ENE 6.9 mph - N/A   Clear
11:13 AM 42.3 °F 39.4 °F 31.1 °F 65% 30.09 in 10.0 mi East 4.6 mph - N/A   Clear
11:34 AM 42.4 °F 38.8 °F 30.9 °F 64% 30.08 in 10.0 mi East 5.8 mph - N/A   Clear
11:53 AM 43.3 °F 40.7 °F 30.4 °F 60% 30.08 in 10.0 mi ESE 4.6 mph - N/A   Clear
12:13 PM 44.4 °F 42.0 °F 30.0 °F 57% 30.07 in 10.0 mi ESE 4.6 mph - N/A   Scattered Clouds
12:33 PM 44.6 °F 42.2 °F 28.6 °F 53% 30.07 in 10.0 mi ENE 4.6 mph - N/A   Scattered Clouds
12:53 PM 44.6 °F 43.1 °F 27.9 °F 52% 30.06 in 10.0 mi ENE 3.5 mph - N/A   Clear
1:13 PM 45.5 °F 42.5 °F 27.7 °F 50% 30.06 in 10.0 mi NE 5.8 mph - N/A   Clear
1:33 PM 45.1 °F - 26.6 °F 48% 30.06 in 10.0 mi Calm Calm - N/A   Clear
1:53 PM 45.7 °F 43.4 °F 27.1 °F 48% 30.05 in 10.0 mi ENE 4.6 mph - N/A   Clear
2:13 PM 45.7 °F 42.7 °F 27.1 °F 48% 30.05 in 10.0 mi NE 5.8 mph - N/A   Clear
2:33 PM 45.9 °F 42.9 °F 27.5 °F 49% 30.05 in 10.0 mi NE 5.8 mph - N/A   Clear
2:53 PM 45.7 °F 42.7 °F 28.2 °F 51% 30.05 in 10.0 mi NNE 5.8 mph - N/A   Clear
3:13 PM 45.5 °F 43.2 °F 28.2 °F 51% 30.05 in 10.0 mi ENE 4.6 mph - N/A   Clear
3:33 PM 45.0 °F 42.6 °F 28.8 °F 53% 30.06 in 10.0 mi ENE 4.6 mph - N/A   Clear
3:53 PM 44.6 °F 40.7 °F 29.1 °F 55% 30.07 in 10.0 mi NE 6.9 mph - N/A   Clear
4:13 PM 44.1 °F 40.8 °F 28.8 °F 55% 30.07 in 10.0 mi ENE 5.8 mph - N/A   Clear
4:38 PM 43.2 °F 39.7 °F 29.8 °F 59% 30.08 in 10.0 mi ENE 5.8 mph - N/A   Clear
4:53 PM 42.1 °F 40.2 °F 30.2 °F 63% 30.08 in 10.0 mi ENE 3.5 mph - N/A   Clear
5:13 PM 40.6 °F 37.5 °F 30.7 °F 68% 30.10 in 10.0 mi NE 4.6 mph - N/A   Clear
5:33 PM 39.2 °F 35.0 °F 30.6 °F 71% 30.10 in 10.0 mi NE 5.8 mph - N/A   Clear
5:53 PM 38.1 °F 34.6 °F 30.9 °F 75% 30.10 in 10.0 mi ENE 4.6 mph - N/A   Clear
6:13 PM 37.2 °F 33.6 °F 30.7 °F 77% 30.11 in 10.0 mi ENE 4.6 mph - N/A   Clear
6:33 PM 36.1 °F 33.5 °F 30.6 °F 80% 30.12 in 10.0 mi ENE 3.5 mph - N/A   Clear
6:53 PM 35.6 °F 32.8 °F 30.4 °F 81% 30.12 in 10.0 mi ENE 3.5 mph - N/A   Clear
7:13 PM 34.9 °F 32.0 °F 30.2 °F 83% 30.13 in 10.0 mi ENE 3.5 mph - N/A   Clear
7:33 PM 34.2 °F - 30.0 °F 85% 30.13 in 10.0 mi Calm Calm - N/A   Clear
7:53 PM 33.1 °F - 30.0 °F 89% 30.13 in 10.0 mi Calm Calm - N/A   Clear
8:13 PM 32.4 °F - 29.8 °F 90% 30.13 in 10.0 mi Calm Calm - N/A   Clear
8:33 PM 31.3 °F - 30.0 °F 95% 30.13 in 10.0 mi Calm Calm - N/A   Clear
8:53 PM 31.6 °F - 30.4 °F 95% 30.14 in 10.0 mi Calm Calm - N/A   Clear
9:13 PM 29.5 °F - 29.5 °F 100% 30.14 in 10.0 mi Calm Calm - N/A   Clear
9:33 PM 28.6 °F 24.8 °F 28.6 °F 100% 30.15 in 10.0 mi WNW 3.5 mph - N/A   Clear
9:53 PM 28.8 °F - 28.8 °F 100% 30.15 in 10.0 mi Calm Calm - N/A   Clear
10:13 PM 28.4 °F - 28.4 °F 100% 30.15 in 10.0 mi Calm Calm - N/A   Clear
10:33 PM 28.0 °F - 28.0 °F 100% 30.15 in 7.0 mi Calm Calm - N/A   Clear
10:53 PM 27.3 °F - 27.3 °F 100% 30.15 in 5.0 mi Calm Calm - N/A   Clear
11:13 PM 26.6 °F - 26.6 °F 100% 30.15 in 5.0 mi Calm Calm - N/A   Clear
11:33 PM 27.0 °F - 27.0 °F 100% 30.15 in 7.0 mi Calm Calm - N/A   Clear
11:53 PM 26.1 °F - 26.1 °F 100% 30.15 in 7.0 mi Calm Calm - N/A   Clear